[keps] orb07249.amsat
Ray Hoad
r.hoad at att.net
Thu Sep 6 20:30:54 PDT 2007
SB KEPS @ AMSAT $ORB07249.O
Orbital Elements 07249.OSCAR
HR AMSAT ORBITAL ELEMENTS FOR OSCAR SATELLITES
FROM WA5QGD FORT WORTH,TX September 6, 2007
Send Subscribe/unsubscribe to KEPS at
http://www.amsat.org/mailman/listinfo/keps
BID: ORB07249.O
TO ALL RADIO AMATEURS BT
Satellite: AO-07
Catalog number: 07530
Epoch time: 07249.54415100
Element set: 970
Inclination: 101.5085 deg
RA of node: 285.1410 deg
Eccentricity: 0.0012176
Arg of perigee: 096.9235 deg
Mean anomaly: 263.3224 deg
Mean motion: 12.53572573 rev/day
Decay rate: -2.8e-07 rev/day^2
Epoch rev: 50131
Checksum: 266
Satellite: AO-10
Catalog number: 14129
Epoch time: 07248.19787538
Element set: 0422
Inclination: 026.1800 deg
RA of node: 258.0244 deg
Eccentricity: 0.6063218
Arg of perigee: 053.4779 deg
Mean anomaly: 348.3926 deg
Mean motion: 02.05867185 rev/day
Decay rate: 1.08e-06 rev/day^2
Epoch rev: 18221
Checksum: 308
Satellite: UO-11
Catalog number: 14781
Epoch time: 07248.60045797
Element set: 0465
Inclination: 098.1881 deg
RA of node: 272.8408 deg
Eccentricity: 0.0008015
Arg of perigee: 273.1432 deg
Mean anomaly: 086.8821 deg
Mean motion: 14.79576731 rev/day
Decay rate: 1.5e-07 rev/day^2
Epoch rev: 26162
Checksum: 316
Satellite: RS-15
Catalog number: 23439
Epoch time: 07248.95839081
Element set: 0097
Inclination: 064.8135 deg
RA of node: 236.2956 deg
Eccentricity: 0.0157092
Arg of perigee: 176.3758 deg
Mean anomaly: 183.8339 deg
Mean motion: 11.27552724 rev/day
Decay rate: -3.9e-07 rev/day^2
Epoch rev: 52280
Checksum: 340
Satellite: FO-29
Catalog number: 24278
Epoch time: 07248.88570742
Element set: 0599
Inclination: 098.5564 deg
RA of node: 197.7216 deg
Eccentricity: 0.0349760
Arg of perigee: 234.1527 deg
Mean anomaly: 122.6656 deg
Mean motion: 13.52932032 rev/day
Decay rate: 1.10e-06 rev/day^2
Epoch rev: 54581
Checksum: 335
Satellite: SO-33
Catalog number: 25509
Epoch time: 07249.69984987
Element set: 13
Inclination: 031.4286 deg
RA of node: 124.8753 deg
Eccentricity: 0.0354674
Arg of perigee: 059.9879 deg
Mean anomaly: 303.5427 deg
Mean motion: 14.28174564 rev/day
Decay rate: 1.36e-06 rev/day^2
Epoch rev: 46291
Checksum: 351
Satellite: AO-40
Catalog number: 26609
Epoch time: 07248.75779707
Element set: 932
Inclination: 006.4227 deg
RA of node: 122.4209 deg
Eccentricity: 0.7958410
Arg of perigee: 000.5376 deg
Mean anomaly: 000.2315 deg
Mean motion: 01.25586165 rev/day
Decay rate: -2.23e-06 rev/day^2
Epoch rev: 3145
Checksum: 288
Satellite: VO-52
Catalog number: 28650
Epoch time: 07248.76106070
Element set: 0721
Inclination: 097.8260 deg
RA of node: 317.6521 deg
Eccentricity: 0.0027143
Arg of perigee: 353.8540 deg
Mean anomaly: 006.2350 deg
Mean motion: 14.81354253 rev/day
Decay rate: 3.01e-06 rev/day^2
Epoch rev: 12634
Checksum: 270
Satellite: PO-63
Catalog number: 29712
Epoch time: 07249.79352036
Element set: 706
Inclination: 097.9151 deg
RA of node: 307.7986 deg
Eccentricity: 0.0013274
Arg of perigee: 220.9572 deg
Mean anomaly: 139.0646 deg
Mean motion: 14.79814793 rev/day
Decay rate: 5.32e-06 rev/day^2
Epoch rev: 3540
Checksum: 330
/EX
SB KEPS @ AMSAT $ORB07249.D
Orbital Elements 07249.MICROS
HR AMSAT ORBITAL ELEMENTS FOR THE MICROSATS
FROM WA5QGD FORT WORTH,TX September 6, 2007
Send Subscribe/unsubscribe to KEPS at
http://www.amsat.org/mailman/listinfo/keps
BID: ORB07249.D
TO ALL RADIO AMATEURS BT
Satellite: AO-16
Catalog number: 20439
Epoch time: 07248.87673750
Element set: 0125
Inclination: 098.2020 deg
RA of node: 239.0093 deg
Eccentricity: 0.0010438
Arg of perigee: 311.7913 deg
Mean anomaly: 048.2374 deg
Mean motion: 14.31768819 rev/day
Decay rate: -2.7e-07 rev/day^2
Epoch rev: 92009
Checksum: 302
Satellite: LO-19
Catalog number: 20442
Epoch time: 07248.55232430
Element set: 0051
Inclination: 098.1852 deg
RA of node: 247.9354 deg
Eccentricity: 0.0011339
Arg of perigee: 310.7495 deg
Mean anomaly: 049.2706 deg
Mean motion: 14.32008960 rev/day
Decay rate: -7.0e-08 rev/day^2
Epoch rev: 92019
Checksum: 288
Satellite: AO-27
Catalog number: 22825
Epoch time: 07249.40825335
Element set: 772
Inclination: 098.3395 deg
RA of node: 215.7826 deg
Eccentricity: 0.0008895
Arg of perigee: 027.7402 deg
Mean anomaly: 332.4257 deg
Mean motion: 14.29216096 rev/day
Decay rate: -1.02e-06 rev/day^2
Epoch rev: 72709
Checksum: 321
Satellite: IO-26
Catalog number: 22826
Epoch time: 07248.81161757
Element set: 470
Inclination: 098.3326 deg
RA of node: 216.2481 deg
Eccentricity: 0.0009707
Arg of perigee: 025.5928 deg
Mean anomaly: 334.5738 deg
Mean motion: 14.29463413 rev/day
Decay rate: 1.4e-07 rev/day^2
Epoch rev: 72709
Checksum: 316
Satellite: PO-28
Catalog number: 22829
Epoch time: 07248.44829152
Element set: 0747
Inclination: 098.3215 deg
RA of node: 217.0551 deg
Eccentricity: 0.0010124
Arg of perigee: 000.9889 deg
Mean anomaly: 359.1319 deg
Mean motion: 14.30165367 rev/day
Decay rate: 8.0e-07 rev/day^2
Epoch rev: 72728
Checksum: 310
Satellite: GO-32
Catalog number: 25397
Epoch time: 07249.78749150
Element set: 395
Inclination: 098.4068 deg
RA of node: 293.4009 deg
Eccentricity: 0.0001493
Arg of perigee: 030.8409 deg
Mean anomaly: 329.2851 deg
Mean motion: 14.23130419 rev/day
Decay rate: 4.0e-08 rev/day^2
Epoch rev: 47576
Checksum: 317
Satellite: MO-46
Catalog number: 26548
Epoch time: 07248.55719485
Element set: 0890
Inclination: 064.5571 deg
RA of node: 294.0258 deg
Eccentricity: 0.0005866
Arg of perigee: 186.3888 deg
Mean anomaly: 173.7152 deg
Mean motion: 14.83170413 rev/day
Decay rate: 4.7e-07 rev/day^2
Epoch rev: 37545
Checksum: 346
Satellite: NO-44
Catalog number: 26931
Epoch time: 07248.61903650
Element set: 0680
Inclination: 067.0521 deg
RA of node: 300.3004 deg
Eccentricity: 0.0006978
Arg of perigee: 253.4402 deg
Mean anomaly: 106.5922 deg
Mean motion: 14.29493586 rev/day
Decay rate: -2.35e-06 rev/day^2
Epoch rev: 30959
Checksum: 298
Satellite: SO-50
Catalog number: 27607
Epoch time: 07249.34960752
Element set: 401
Inclination: 064.5578 deg
RA of node: 198.6039 deg
Eccentricity: 0.0063936
Arg of perigee: 339.0118 deg
Mean anomaly: 020.8368 deg
Mean motion: 14.71283822 rev/day
Decay rate: 7.7e-07 rev/day^2
Epoch rev: 25306
Checksum: 319
Satellite: CO-55
Catalog number: 27844
Epoch time: 07249.52869127
Element set: 114
Inclination: 098.7207 deg
RA of node: 256.7237 deg
Eccentricity: 0.0009205
Arg of perigee: 213.0529 deg
Mean anomaly: 147.0074 deg
Mean motion: 14.20529714 rev/day
Decay rate: 3.5e-07 rev/day^2
Epoch rev: 21702
Checksum: 295
Satellite: CO-57
Catalog number: 27848
Epoch time: 07249.55969628
Element set: 72
Inclination: 098.7194 deg
RA of node: 255.9205 deg
Eccentricity: 0.0009030
Arg of perigee: 218.2606 deg
Mean anomaly: 141.7945 deg
Mean motion: 14.20346557 rev/day
Decay rate: 2.5e-07 rev/day^2
Epoch rev: 21700
Checksum: 321
Satellite: AO-51
Catalog number: 28375
Epoch time: 07249.76362212
Element set: 905
Inclination: 098.1068 deg
RA of node: 284.8544 deg
Eccentricity: 0.0083700
Arg of perigee: 296.1036 deg
Mean anomaly: 063.1557 deg
Mean motion: 14.40578559 rev/day
Decay rate: -.00000000 rev/day^2
Epoch rev: 16745
Checksum: 310
Satellite: CO-56
Catalog number: 28941
Epoch time: 07248.69628987
Element set: 0555
Inclination: 098.1202 deg
RA of node: 318.9017 deg
Eccentricity: 0.0214299
Arg of perigee: 347.6111 deg
Mean anomaly: 011.9859 deg
Mean motion: 15.42932316 rev/day
Decay rate: 2.0473e-04 rev/day^2
Epoch rev: 08583
Checksum: 344
Satellite: HO-59
Catalog number: 29484
Epoch time: 07249.68734980
Element set: 658
Inclination: 098.2756 deg
RA of node: 312.1753 deg
Eccentricity: 0.0184675
Arg of perigee: 332.7152 deg
Mean anomaly: 026.4469 deg
Mean motion: 15.57371396 rev/day
Decay rate: 3.4352e-04 rev/day^2
Epoch rev: 5373
Checksum: 361
Satellite: NO-60
Catalog number: 29661
Epoch time: 07150.05824307
Element set: 300
Inclination: 051.6186 deg
RA of node: 176.5045 deg
Eccentricity: 0.0007204
Arg of perigee: 190.7749 deg
Mean anomaly: 188.7342 deg
Mean motion: 16.52052832 rev/day
Decay rate: 1.3324117e-01 rev/day^2
Epoch rev: 2554
Checksum: 290
Satellite: NO-61
Catalog number: 29664
Epoch time: 07249.78383443
Element set: 448
Inclination: 051.6310 deg
RA of node: 020.6036 deg
Eccentricity: 0.0010326
Arg of perigee: 309.6983 deg
Mean anomaly: 050.3114 deg
Mean motion: 15.97427539 rev/day
Decay rate: 4.3087e-04 rev/day^2
Epoch rev: 4117
Checksum: 304
Satellite: CP4
Catalog number: 31122
Epoch time: 07248.64756976
Element set: 0129
Inclination: 098.0798 deg
RA of node: 319.3040 deg
Eccentricity: 0.0086643
Arg of perigee: 135.2326 deg
Mean anomaly: 225.5887 deg
Mean motion: 14.55030173 rev/day
Decay rate: 5.51e-06 rev/day^2
Epoch rev: 02055
Checksum: 304
Satellite: CP3
Catalog number: 31128
Epoch time: 07249.71381923
Element set: 122
Inclination: 098.0771 deg
RA of node: 319.6249 deg
Eccentricity: 0.0103681
Arg of perigee: 133.5196 deg
Mean anomaly: 227.4673 deg
Mean motion: 14.51862570 rev/day
Decay rate: -4.6e-07 rev/day^2
Epoch rev: 2065
Checksum: 296
Satellite: LIBERT
Catalog number: 31129
Epoch time: 07248.74047335
Element set: 0351
Inclination: 098.0764 deg
RA of node: 318.7016 deg
Eccentricity: 0.0103310
Arg of perigee: 136.7630 deg
Mean anomaly: 224.1734 deg
Mean motion: 14.51954725 rev/day
Decay rate: 3.39e-06 rev/day^2
Epoch rev: 02049
Checksum: 278
/EX
SB KEPS @ AMSAT $ORB07249.W
Orbital Elements 07249.WEATHER
HR AMSAT ORBITAL ELEMENTS FOR WEATHER SATELLITES
FROM WA5QGD FORT WORTH,TX September 6, 2007
Send Subscribe/unsubscribe to KEPS at
http://www.amsat.org/mailman/listinfo/keps
BID: ORB07249.W
TO ALL RADIO AMATEURS BT
Satellite: NOAA-10
Catalog number: 16969
Epoch time: 07248.56827067
Element set: 0796
Inclination: 098.7449 deg
RA of node: 265.7948 deg
Eccentricity: 0.0011768
Arg of perigee: 296.8557 deg
Mean anomaly: 063.1408 deg
Mean motion: 14.27332872 rev/day
Decay rate: 1.8e-07 rev/day^2
Epoch rev: 09069
Checksum: 368
